FW1003 Weather Reports


Display with metric or nautical units.
time (UTC)temp
F
wind
direction
speed
MPH
gust
MPH
rain 1hr
in
rain 24hr
in
rain mn
in
humidity
%
barometer
mb
20260509183004 70 319 0.0 4.0 0.00 0.00 0.00 77 1017.7
20260509181504 70 198 0.0 2.0 0.00 0.00 0.00 77 1017.5
20260509180004 70 198 0.0 6.0 0.00 0.00 0.00 76 1017.4
20260509174503 70 347 1.0 4.0 0.00 0.00 0.00 76 1017.4
20260509173002 70 310 0.0 6.0 0.00 0.00 0.00 76 1017.4
20260509171503 71 328 1.0 9.0 0.00 0.00 0.00 75 1017.2
20260509170046 71 329 1.0 10.0 0.00 0.00 0.00 75 1017.2
20260509164547 71 360 0.0 5.0 0.00 0.00 0.00 74 1016.9
20260509163045 71 330 1.0 5.0 0.00 0.00 0.00 74 1016.7
20260509161542 72 283 2.0 8.0 0.00 0.00 0.00 73 1016.7
20260509160042 72 317 2.0 14.0 0.00 0.00 0.00 72 1016.6
20260509154550 73 318 3.0 8.0 0.00 0.00 0.00 71 1016.6
20260509153040 74 311 2.0 5.0 0.00 0.00 0.00 70 1016.6
20260509151543 74 319 3.0 8.0 0.00 0.00 0.00 69 1016.8
20260509150036 74 267 3.0 9.0 0.00 0.00 0.00 69 1016.5
20260509144546 75 17 2.0 13.0 0.00 0.00 0.00 68 1016.5
20260509143039 75 327 2.0 11.0 0.00 0.00 0.00 66 1016.4
20260509141538 76 351 4.0 14.0 0.00 0.00 0.00 64 1016.4
20260509140053 77 323 4.0 11.0 0.00 0.00 0.00 63 1016.5
20260509134533 77 338 4.0 14.0 0.00 0.00 0.00 62 1016.7
20260509133031 78 337 5.0 14.0 0.00 0.00 0.00 60 1016.7
20260509131540 79 303 4.0 14.0 0.00 0.00 0.00 59 1016.6
20260509130029 79 310 2.0 13.0 0.00 0.00 0.00 59 1016.6
20260509124526 79 291 4.0 12.0 0.00 0.00 0.00 59 1016.8
20260509123025 79 351 3.0 13.0 0.00 0.00 0.00 59 1017.0
20260509121526 79 343 7.0 15.0 0.00 0.00 0.00 57 1017.0
20260509120023 79 320 4.0 17.0 0.00 0.00 0.00 58 1016.9
20260509114522 79 338 6.0 15.0 0.00 0.00 0.00 59 1017.1
20260509113021 80 112 4.0 15.0 0.00 0.00 0.00 57 1017.2
20260509111520 79 346 7.0 13.0 0.00 0.00 0.00 57 1017.2
20260509110016 81 333 4.0 14.0 0.00 0.00 0.00 57 1017.3
20260509104518 81 309 5.0 14.0 0.00 0.00 0.00 57 1017.5
20260509103014 81 273 4.0 15.0 0.00 0.00 0.00 56 1017.4
20260509101513 81 286 3.0 10.0 0.00 0.00 0.00 56 1017.7
20260509100013 82 271 2.0 12.0 0.00 0.00 0.00 54 1017.8
20260509094512 81 292 4.0 12.0 0.00 0.00 0.00 54 1017.8
20260509093011 83 244 3.0 9.0 0.00 0.00 0.00 53 1018.0
20260509091509 83 10 3.0 9.0 0.00 0.00 0.00 53 1017.9
20260509090104 82 360 3.0 10.0 0.00 0.00 0.00 53 1017.9
20260509084547 82 360 3.0 9.0 0.00 0.00 0.00 53 1018.1
20260509083050 80 310 4.0 13.0 0.00 0.00 0.00 53 1018.3
20260509081541 80 289 6.0 16.0 0.00 0.00 0.00 54 1018.3
20260509080037 80 303 2.0 12.0 0.00 0.00 0.00 56 1018.4
20260509074534 79 311 5.0 12.0 0.00 0.00 0.00 56 1018.4
20260509073029 79 326 2.0 13.0 0.00 0.00 0.00 59 1018.3
20260509071524 78 315 4.0 11.0 0.00 0.00 0.00 60 1018.4
20260509070018 77 340 5.0 10.0 0.00 0.00 0.00 61 1018.4
20260509064514 77 360 2.0 9.0 0.00 0.00 0.00 62 1018.4
20260509063009 76 261 3.0 10.0 0.00 0.00 0.00 64 1018.5
20260509061505 77 313 4.0 9.0 0.00 0.00 0.00 62 1018.5
20260509060004 76 146 2.0 6.0 0.00 0.00 0.00 61 1018.4
20260509054613 74 329 0.0 5.0 0.00 0.00 0.00 63 1018.5
20260509053132 73 131 1.0 3.0 0.00 0.00 0.00 67 1018.3
20260509051549 71 132 2.0 4.0 0.00 0.00 0.00 70 1018.4
20260509050042 70 132 1.0 4.0 0.00 0.00 0.00 72 1018.2
20260509044538 68 236 1.0 3.0 0.00 0.00 0.00 76 1018.2
20260509043039 66 360 0.0 0.0 0.00 0.00 0.00 77 1018.4
20260509041537 64 237 0.0 0.0 0.00 0.00 0.00 79 1018.4
20260509040025 61 236 0.0 0.0 0.00 0.00 0.00 78 1018.4
20260509034523 60 237 0.0 0.0 0.00 0.00 0.00 77 1018.3
20260509033019 60 236 0.0 0.0 0.00 0.00 0.00 78 1018.2
20260509031515 60 236 0.0 0.0 0.00 0.00 0.00 77 1018.1
20260509030006 59 238 0.0 0.0 0.00 0.00 0.00 77 1018.0
20260509024504 59 238 0.0 0.0 0.00 0.00 0.00 77 1017.9
20260509023004 60 238 0.0 0.0 0.00 0.00 0.00 77 1017.7
20260509021503 59 237 0.0 0.0 0.00 0.00 0.00 77 1017.8
20260509020001 60 237 0.0 0.0 0.00 0.00 0.00 77 1017.8
20260509014603 61 236 0.0 0.0 0.00 0.00 0.00 77 1017.6
20260509013109 61 237 0.0 0.0 0.00 0.00 0.00 77 1017.7
20260509011557 61 246 0.0 0.0 0.00 0.00 0.00 77 1017.8
20260509010056 61 246 0.0 0.0 0.00 0.00 0.00 76 1017.7
20260509004555 62 246 0.0 0.0 0.00 0.00 0.00 76 1017.7
20260509003051 62 246 0.0 0.0 0.00 0.00 0.00 76 1017.6
20260509001548 63 246 0.0 0.0 0.00 0.00 0.00 76 1017.8
20260509000046 63 246 0.0 0.0 0.00 0.00 0.00 76 1017.8
20260508234548 64 245 0.0 0.0 0.00 0.00 0.00 75 1017.6
20260508233043 64 246 1.0 3.0 0.00 0.00 0.00 75 1017.5
20260508231545 65 360 0.0 2.0 0.00 0.00 0.00 74 1017.6
20260508230047 67 323 0.0 4.0 0.00 0.00 0.00 75 1017.6
20260508224542 68 297 2.0 5.0 0.00 0.00 0.00 76 1017.5
20260508223038 69 335 2.0 8.0 0.00 0.00 0.00 76 1017.7
20260508221543 69 334 1.0 4.0 0.00 0.00 0.00 76 1017.7
20260508220036 69 360 1.0 4.0 0.00 0.00 0.00 75 1017.9
20260508214531 69 360 1.0 4.0 0.00 0.00 0.00 74 1017.9
20260508213027 68 360 0.0 3.0 0.00 0.00 0.00 72 1018.1
20260508211525 67 305 0.0 2.0 0.00 0.00 0.00 70 1018.2
20260508210024 67 304 0.0 1.0 0.00 0.00 0.00 68 1018.1
20260508204524 68 304 0.0 1.0 0.00 0.00 0.00 66 1018.2
20260508203021 68 304 0.0 1.0 0.00 0.00 0.00 63 1017.9
20260508201521 69 304 0.0 2.0 0.00 0.00 0.00 60 1017.8
20260508200021 69 303 1.0 3.0 0.00 0.00 0.00 55 1018.0
20260508194520 70 360 1.0 4.0 0.00 0.00 0.00 51 1018.1
20260508193018 70 360 2.0 5.0 0.00 0.00 0.00 52 1018.2
20260508191520 71 360 1.0 5.0 0.00 0.00 0.00 52 1018.3
20260508190016 70 313 1.0 4.0 0.00 0.00 0.00 53 1018.3
20260508184517 70 334 1.0 4.0 0.00 0.00 0.00 54 1018.4